Location: Anan
(43.3550°N, 0.8171°E)
Time: 20:07:23
(UTC+00:00)

DEBRIS - Pass Details

Date: 14 May 2026
Orbit: 297 x 14421 km, 49.4° (Epoch: 5 June)

Event Time Altitude Azimuth Distance (km) Brightness Sun altitude
Rises 20:36:46 0° 271° (W) 2,125 6.6 -13.3°
Reaches altitude 10° 20:38:10 10° 280° (W) 1,472 5.9 -13.5°
Maximum altitude 20:40:55 45° 356° (N) 858 4.1 -13.8°
Drops below altitude 10° 20:48:03 10° 69° (ENE) 3,818 6.8 -14.8°
Sets 20:54:16 0° 75° (ENE) 6,489 8.0 -15.5°
